Wind_Speed
57 55 54 52 52 53 53 53 53 54 56 58 60 62 63 63 62 61 61 61 61 60 60 59 59 58 58 58 58 59 59 59 58 56 54 54 56 59 61 61 60 59
57 55 52 50 50 51 52 52 52 53 55 56 57 59 60 60 60 59 59 60 60 61 61 61 61 60 60 59 59 61 61 61 60 58 56 56 57 57 58 59 59 58
56 55 53 50 50 52 53 53 52 52 53 55 56 57 58 58 58 58 58 59 59 59 59 59 60 60 60 59 59 60 61 61 61 60 59 59 60 59 59 58 58 59
53 53 53 52 52 54 55 53 51 50 51 53 54 55 56 57 58 58 58 59 60 60 59 58 59 60 60 59 60 60 61 62 62 63 63 63 65 65 65 62 61 61
51 50 51 52 53 54 54 53 52 51 50 51 53 54 55 56 57 57 57 58 59 60 60 59 60 60 60 60 61 61 61 62 62 63 63 63 64 66 67 65 63 62
50 48 49 50 49 49 52 53 54 53 52 53 54 55 56 57 58 58 58 59 60 60 61 62 62 63 63 63 63 62 62 63 63 63 63 63 63 63 63 63 62 61
50 50 51 50 51 54 57 57 56 56 56 56 55 56 56 57 58 59 60 61 63 64 65 65 65 65 65 64 63 63 63 63 63 63 62 62 61 60 60 60 59 59
51 54 55 55 58 63 64 62 60 59 59 58 57 57 57 57 57 57 58 60 62 65 67 67 67 67 66 65 63 63 62 61 60 60 59 59 58 58 57 56 56 56
56 58 59 60 64 67 67 65 63 61 59 59 59 58 57 57 57 57 57 58 59 62 66 67 67 66 65 63 61 60 59 59 59 58 58 57 56 55 54 53 53 53
57 59 60 62 64 65 65 65 64 62 59 57 57 57 57 57 56 55 56 58 59 61 63 63 62 61 59 58 58 58 58 58 59 58 57 56 55 54 53 53 53 54
56 59 60 62 63 63 63 61 61 60 59 56 54 53 54 55 55 55 56 57 59 59 59 59 58 58 58 58 58 59 59 59 59 58 56 55 55 55 55 56 56 56
63 62 62 61 61 61 60 59 58 56 55 55 54 52 52 53 53 54 55 56 57 58 57 57 58 58 59 60 61 61 61 60 58 56 55 55 56 56 57 57 58 58
67 65 62 59 59 58 58 58 56 54 53 54 54 55 56 56 55 54 55 56 57 58 58 58 58 59 60 62 63 62 60 58 56 55 56 57 58 59 60 59 59 59
66 66 64 62 60 59 59 57 54 52 52 54 55 56 58 59 58 57 56 55 56 58 60 60 60 61 61 61 61 59 57 56 56 57 58 60 62 64 64 62 62 61
63 64 64 63 61 60 61 59 55 54 54 55 56 56 56 58 58 57 57 57 57 58 60 61 61 61 60 59 58 58 58 59 60 61 62 63 65 67 66 65 64 64
61 61 62 61 60 59 60 59 58 57 56 55 55 56 56 57 59 59 59 59 59 59 60 61 61 61 60 60 61 62 62 64 65 67 67 67 68 68 67 67 67 66
59 58 59 59 58 58 59 58 58 59 58 57 56 57 58 59 61 62 62 61 61 61 62 63 64 64 64 65 66 67 67 68 69 70 69 68 68 68 68 68 69 69
56 55 56 55 54 54 55 56 58 59 60 61 60 60 61 62 62 62 63 63 63 64 64 64 66 67 68 68 69 71 71 71 71 70 69 69 69 70 70 71 73 74
56 56 57 57 57 56 56 56 58 59 60 61 62 62 62 62 61 61 61 62 64 65 66 66 67 69 70 71 71 73 73 73 71 70 70 71 72 74 75 76 77 78
58 59 60 61 62 62 63 62 62 62 61 61 62 63 63 63 63 63 63 64 65 67 68 70 71 73 74 75 75 75 75 75 74 74 74 75 77 78 79 79 79 80
61 61 61 62 62 63 65 65 65 65 65 65 65 67 68 68 68 68 69 69 70 71 73 74 76 76 77 78 78 78 78 78 77 77 78 79 80 81 81 81 82 82
61 62 63 63 63 63 64 64 65 65 66 67 68 70 71 73 73 74 74 74 75 76 77 78 79 79 79 80 80 80 80 80 80 80 81 81 82 82 83 83 83 84
61 62 63 64 64 64 64 64 65 66 66 67 69 70 72 73 75 75 76 77 78 79 80 80 81 82 81 82 82 83 83 83 83 83 83 83 84 84 84 84 85 85
62 63 64 65 66 66 67 67 67 68 68 68 69 70 71 73 74 75 76 78 79 80 81 82 83 84 85 85 86 87 87 87 87 86 85 85 85 86 86 86 86 86
63 64 64 65 66 67 68 68 68 69 69 69 70 70 71 72 73 74 76 77 79 80 81 82 83 85 86 86 87 87 88 88 87 87 86 86 86 86 86 86 86 86
62 62 63 64 65 66 66 67 68 69 69 70 70 71 71 72 73 74 75 76 78 79 81 82 83 84 84 85 85 86 86 86 86 85 85 84 84 84 84 84 83 83
Wind_Direction
283 279 276 275 276 275 274 272 269 267 265 264 264 265 266 267 267 268 267 267 266 266 265 264 264 265 266 266 266 267 267 266 265 265 266 268 268 267 265 264 263 263
282 279 276 276 276 274 271 269 267 265 264 264 264 264 265 266 266 267 267 267 266 267 267 267 267 268 268 267 267 268 268 268 268 267 266 265 265 264 262 262 262 262
281 279 276 275 273 269 267 267 268 267 265 264 264 264 264 265 266 267 267 267 267 267 268 268 269 269 269 269 268 267 267 268 268 268 266 265 265 264 263 262 262 262
282 279 276 273 272 270 268 268 269 271 271 270 268 267 266 266 266 266 267 267 268 268 268 268 268 268 268 268 267 267 268 269 269 270 269 267 265 265 266 266 265 265
284 280 277 273 272 271 270 271 273 275 275 274 274 273 271 270 269 268 268 269 269 269 270 269 269 268 267 267 267 268 269 270 271 271 270 270 268 267 268 269 269 269
285 281 276 271 266 267 272 277 279 280 279 278 278 277 275 273 271 270 268 268 267 268 268 268 268 267 268 268 268 268 269 271 272 272 271 270 269 269 269 269 270 270
281 275 270 265 261 267 276 281 282 282 281 280 280 279 278 276 275 273 271 269 268 267 266 266 267 268 269 269 269 269 270 271 271 271 270 270 269 269 268 268 268 268
274 268 265 263 266 274 280 282 282 282 281 280 280 279 278 278 277 276 275 273 272 270 269 269 269 270 271 271 271 271 271 271 271 270 269 269 269 268 267 267 267 266
270 268 267 269 274 279 282 283 283 282 281 280 280 279 278 277 276 275 275 274 273 271 270 270 270 271 270 270 270 270 270 270 270 269 268 267 267 266 266 266 267 267
270 271 274 277 280 282 283 284 285 285 284 282 280 279 278 276 274 273 273 273 272 271 270 269 269 269 269 269 269 269 269 269 268 266 265 265 264 265 267 269 270 270
277 278 280 282 282 282 283 284 285 285 285 284 282 279 276 274 273 272 273 272 271 270 269 268 268 268 269 270 269 269 268 267 265 263 262 262 263 266 268 271 272 272
283 283 283 283 281 282 282 283 283 282 281 282 282 280 277 275 272 271 271 271 269 268 267 266 267 269 270 270 270 268 267 265 264 263 263 264 266 269 271 272 272 272
284 284 283 281 280 281 281 281 280 279 277 277 278 277 276 273 270 268 269 268 266 265 264 265 267 269 269 269 267 266 265 264 264 264 265 267 269 272 273 273 272 272
282 282 281 280 280 281 281 280 277 275 272 271 272 272 271 270 267 266 265 266 266 265 265 268 270 270 268 266 265 264 264 264 264 265 266 267 268 271 272 272 271 272
279 278 278 279 280 281 280 278 275 271 268 268 270 270 270 269 268 266 266 267 267 267 267 269 269 268 267 264 263 264 264 264 264 264 265 266 267 269 270 270 270 271
277 275 276 278 280 279 277 274 272 269 267 268 269 270 270 270 269 268 268 269 268 267 265 264 263 263 263 262 262 262 262 262 263 265 266 267 268 268 268 269 270 272
277 277 277 277 276 275 273 272 271 270 269 269 270 270 270 270 269 268 268 268 267 266 264 262 261 260 260 260 261 261 262 264 266 268 269 269 269 270 270 270 271 273
277 276 275 273 271 271 270 269 269 269 270 270 270 269 267 267 266 266 266 266 266 265 263 261 259 258 258 259 260 261 264 268 270 270 270 271 271 272 272 273 274 275
279 277 276 275 275 274 273 271 271 271 270 270 268 266 264 263 263 264 265 265 265 263 261 259 258 259 261 263 264 265 268 271 272 272 272 273 273 274 274 275 276 276
281 280 278 278 277 277 276 275 275 274 273 271 269 267 266 266 266 267 267 267 267 266 265 264 264 265 267 269 270 271 272 273 274 274 275 275 275 275 275 275 275 275
281 281 279 277 276 274 274 273 272 271 270 269 268 268 269 269 270 270 270 270 270 270 269 269 270 270 271 272 273 273 274 275 275 275 275 275 274 274 274 275 275 275
280 279 278 277 275 274 272 271 270 269 268 267 267 267 268 269 270 270 270 270 270 270 270 271 271 271 272 272 273 273 274 274 274 274 274 274 274 274 275 275 276 276
278 277 276 275 275 274 274 273 272 272 271 270 269 269 269 269 269 270 270 270 270 271 271 271 272 272 273 273 274 275 275 275 275 275 275 275 276 276 276 276 277 277
278 277 276 276 275 274 274 274 274 273 273 272 271 271 271 270 270 270 270 270 270 271 271 272 272 273 273 273 274 275 275 275 276 276 276 276 277 277 277 277 277 277
279 279 278 277 277 276 276 275 275 275 274 274 273 273 272 272 271 271 271 271 271 271 271 272 272 272 273 273 273 273 274 274 275 275 276 276 277 277 277 277 277 276
281 280 280 279 278 278 277 277 277 276 276 276 275 275 274 274 273 273 273 272 272 272 272 272 272 273 273 273 273 274 274 274 275 275 276 276 276 276 276 276 276 276
Height
5549 5547 5546 5545 5544 5543 5542 5541 5540 5540 5539 5539 5538 5537 5537 5536 5535 5535 5534 5534 5533 5533 5533 5533 5533 5532 5532 5532 5531 5531 5530 5530 5529 5530 5530 5529 5529 5529 5528 5527 5527 5527
5541 5539 5538 5538 5537 5535 5534 5533 5532 5532 5531 5531 5530 5530 5529 5528 5527 5527 5526 5526 5525 5525 5524 5524 5523 5523 5523 5523 5523 5522 5522 5521 5521 5522 5522 5522 5521 5521 5520 5519 5519 5519
5532 5532 5531 5530 5530 5528 5527 5526 5525 5524 5524 5523 5522 5522 5521 5520 5520 5519 5518 5518 5517 5517 5516 5516 5515 5515 5514 5514 5514 5513 5513 5512 5512 5513 5514 5513 5513 5512 5511 5511 5511 5510
5524 5524 5523 5523 5522 5521 5520 5518 5517 5516 5515 5515 5514 5513 5512 5512 5511 5511 5510 5510 5509 5509 5508 5508 5507 5507 5506 5506 5505 5505 5504 5504 5503 5504 5504 5503 5503 5503 5503 5502 5502 5501
5517 5516 5516 5515 5514 5514 5512 5511 5509 5508 5508 5507 5506 5505 5504 5503 5503 5502 5502 5501 5501 5500 5499 5499 5498 5498 5498 5498 5497 5497 5496 5495 5495 5496 5495 5494 5494 5494 5494 5493 5493 5493
5510 5509 5509 5507 5506 5505 5503 5502 5501 5500 5500 5499 5498 5497 5496 5495 5494 5494 5493 5493 5492 5492 5491 5490 5490 5489 5489 5489 5488 5488 5487 5487 5487 5487 5487 5485 5485 5485 5485 5484 5484 5483
5503 5502 5501 5499 5497 5495 5493 5493 5492 5492 5491 5490 5490 5489 5488 5487 5486 5485 5484 5484 5483 5483 5482 5482 5481 5481 5480 5480 5479 5478 5478 5477 5477 5477 5477 5476 5476 5476 5476 5475 5475 5475
5495 5493 5491 5490 5487 5485 5484 5484 5484 5483 5482 5481 5481 5480 5479 5478 5477 5476 5475 5474 5474 5473 5473 5472 5472 5471 5471 5470 5470 5469 5468 5468 5467 5468 5468 5467 5467 5467 5466 5466 5466 5466
5485 5483 5481 5480 5478 5476 5475 5474 5474 5474 5473 5472 5471 5470 5470 5469 5468 5467 5466 5465 5465 5464 5464 5463 5463 5462 5462 5461 5460 5460 5459 5459 5459 5458 5458 5458 5458 5457 5457 5457 5457 5457
5476 5474 5472 5471 5470 5468 5467 5465 5464 5463 5463 5462 5462 5461 5460 5459 5459 5458 5457 5456 5456 5455 5455 5454 5454 5454 5453 5452 5452 5451 5451 5450 5450 5450 5449 5449 5449 5448 5448 5448 5448 5448
5466 5465 5464 5463 5461 5459 5458 5457 5455 5454 5453 5452 5452 5452 5451 5451 5450 5449 5448 5447 5447 5446 5445 5445 5444 5444 5444 5444 5443 5443 5442 5442 5441 5441 5440 5440 5440 5440 5439 5439 5439 5438
5457 5456 5455 5454 5453 5451 5449 5448 5447 5446 5445 5444 5443 5443 5443 5442 5441 5441 5440 5439 5438 5437 5437 5436 5435 5435 5435 5435 5435 5434 5434 5433 5433 5432 5432 5431 5431 5431 5431 5430 5429 5429
5448 5447 5446 5445 5444 5443 5441 5440 5439 5438 5437 5436 5435 5435 5434 5433 5433 5432 5431 5430 5430 5429 5428 5427 5427 5426 5426 5426 5426 5425 5425 5424 5424 5423 5423 5423 5422 5422 5421 5420 5420 5419
5440 5438 5437 5436 5435 5434 5433 5432 5431 5430 5429 5428 5427 5427 5426 5425 5424 5423 5422 5421 5421 5420 5419 5419 5418 5418 5417 5417 5416 5416 5416 5416 5415 5414 5414 5414 5413 5412 5411 5410 5410 5409
5432 5430 5429 5427 5426 5425 5424 5423 5423 5422 5421 5420 5419 5418 5417 5416 5415 5414 5414 5413 5412 5411 5410 5409 5409 5408 5408 5407 5407 5407 5407 5406 5406 5405 5405 5404 5403 5402 5401 5400 5400 5399
5423 5421 5420 5418 5417 5416 5415 5414 5413 5413 5412 5411 5410 5409 5408 5407 5406 5405 5405 5403 5402 5402 5401 5400 5399 5399 5398 5397 5397 5397 5397 5397 5396 5396 5395 5394 5393 5391 5390 5390 5389 5388
5414 5412 5411 5409 5408 5407 5406 5405 5404 5403 5402 5402 5401 5400 5399 5398 5397 5396 5395 5394 5393 5392 5391 5391 5390 5389 5388 5387 5387 5386 5386 5386 5386 5386 5385 5383 5381 5380 5379 5379 5378 5378
5405 5403 5402 5400 5399 5398 5396 5396 5395 5394 5393 5392 5391 5390 5389 5388 5387 5386 5385 5384 5383 5382 5381 5380 5380 5379 5378 5377 5376 5375 5375 5375 5376 5376 5374 5372 5370 5369 5368 5368 5367 5366
5396 5395 5393 5391 5390 5388 5387 5386 5385 5384 5384 5382 5381 5381 5379 5378 5377 5376 5375 5374 5373 5372 5371 5370 5369 5368 5366 5365 5365 5364 5363 5364 5365 5365 5362 5360 5359 5357 5356 5356 5355 5354
5387 5385 5384 5382 5381 5379 5378 5377 5376 5375 5374 5373 5372 5371 5369 5368 5367 5366 5365 5364 5363 5362 5360 5359 5358 5357 5355 5354 5353 5352 5352 5352 5353 5353 5350 5348 5347 5345 5344 5344 5343 5342
5377 5375 5374 5372 5371 5369 5368 5367 5366 5365 5364 5363 5361 5360 5359 5358 5356 5355 5354 5353 5352 5351 5349 5347 5346 5345 5344 5342 5341 5340 5340 5339 5340 5340 5338 5337 5335 5333 5332 5331 5330 5329
5367 5365 5363 5361 5360 5358 5357 5356 5355 5354 5353 5352 5350 5349 5348 5347 5345 5344 5343 5341 5340 5339 5338 5335 5333 5333 5332 5331 5329 5328 5327 5327 5327 5327 5326 5325 5323 5321 5320 5319 5317 5316
5356 5355 5353 5351 5349 5348 5346 5345 5344 5343 5342 5341 5339 5338 5336 5335 5334 5332 5331 5329 5328 5326 5325 5323 5321 5320 5319 5319 5317 5315 5314 5314 5314 5313 5313 5312 5309 5308 5307 5306 5304 5302
5346 5344 5342 5340 5339 5337 5335 5334 5332 5331 5330 5329 5328 5326 5325 5323 5322 5321 5319 5318 5316 5314 5313 5312 5309 5307 5307 5306 5304 5302 5302 5301 5301 5300 5299 5298 5296 5294 5293 5292 5291 5289
5335 5333 5331 5329 5327 5326 5324 5323 5321 5319 5318 5317 5316 5315 5314 5312 5311 5309 5308 5306 5304 5302 5301 5299 5298 5296 5294 5293 5292 5290 5289 5289 5288 5288 5287 5285 5283 5281 5280 5278 5277 5276
5324 5322 5321 5318 5316 5315 5313 5312 5310 5308 5307 5306 5305 5304 5302 5301 5299 5298 5296 5294 5292 5290 5289 5287 5286 5284 5281 5280 5279 5277 5276 5276 5276 5275 5274 5272 5271 5269 5267 5265 5264 5262